Find Starlink 6099

NORAD ID: 57108 Int'l Des: 2023-090 Owner: SPXS Country: US Constellation: starlink operational
LEOCIRCULAR

Live Position

Loading 3D Globe...

About Starlink 6099

Description loading...

Upcoming Passes

Passes for default location (London). Set your location on the main map for personalized predictions.

Altitude History

Loading altitude history...

Two-Line Element Set

1 57108U 23090H 26121.25002315 -.00008744 00000-0 -30849-3 0 9997
2 57108 43.0004 344.7190 0001434 268.3983 351.2729 15.27590753 5797
Epoch: May 1, 2026 • Age: 7 hours

Current Status

Altitude 482.4 km
Velocity 7.63 km/s
Sub-Earth Point 5.17°N, 95.94°E
Launch Date Jun 23, 2023
Age 2.8 years
Type internet

Technical Details

Classification Payload
Mass 305.00 kg
Dry Mass 290.00 kg
Total Mass 305.00 kg
Length 0.20 m
Diameter 2.80 m
Span 9.00 m
Shape Box + pan
Manufacturer SPXS
Bus Type Starlink
Phase Status In Orbit
Owner/State SPXS/US

Most Searched